Погода в Калинине

Россия / Астраханская область     46°20′41″N   48°52′40″E
темп.,
°C
ветер,
м/с
пор.,
м/с
влажн.,
%
обл.,
%
осадки,
мм/ч
давл.,
гПа
погр.,
м
18 мая, ср
ср1801:00+14зюз4107799 0.2 1012461
04:00+13з59745 0.3 1013423
07:00+14з46476 0.0 1014286
10:00+19з682910 0.0 10152160
13:00+22з562599 0.0 10142323
16:00+22ююз4627100 0.0 10132538
19:00+19ююз6748100 0.0 1014654
22:00+17ююз585835 0.0 1015320
19 мая, чт
чт1901:00+16ю4764100 0.0 1014210
04:00+16ю356383 0.0 1013142
07:00+18ю2459100 0.0 1014452
10:00+21ююв454685 0.0 10141109
13:00+23ю5540100 0.0 10141505
16:00+23ю654228 0.0 1013846
19:00+21ю454917 0.0 1012269
22:00+18ююз366065 0.0 1012130
20 мая, пт
пт2001:00+17юз375941 0.0 1010148
04:00+14сз10158161 0.0 1010603
07:00+12зсз81381100 0.1 1012681
10:00+14зсз71062100 0.8 10121311
13:00+16зсз8955100 0.3 10111477
16:00+19сз81239100 0.4 10112397
19:00+17сз7114283 0.1 10122125
22:00+14сз410525 0.1 1015366
21 мая, сб
сб2101:00+11зсз4106012 0.0 1015238
04:00+10сз35625 0.0 101590
07:00+12зсз355071 0.0 1016248
10:00+17з3636100 0.0 10151660
13:00+18зюз584580 0.0 10132088
16:00+19з91345100 0.1 10112107
19:00+15зюз81466100 0.1 10111208
22:00+14зюз91583100 0.5 1010978
22 мая, вс
вс2201:00+14зюз101782100 0.6 10081241
04:00+15з8137388 0.6 1008946
07:00+15з7107093 0.0 1008743
10:00+15зюз686784 0.0 1007754
13:00+20зсз575299 0.1 10061483
16:00+16з4874100 0.7 1007723
19:00+16з2369100 0.1 1007557
22:00+15юз237994 0.8 1007196